Location: Forst
(46.9333°N, 15.4333°E)
Time: 17:28:23
(UTC+00:00)

Tiangong - Pass Details

Date: 02 October 2021
Orbit: 382 x 385 km, 41.5° (Epoch: 18 October)

Event Time Altitude Azimuth Distance (km) Brightness Sun altitude
Exits shadow 02:55:55 23° 142° (SE) 854 3.0 -21.4°
Drops below altitude 10° 02:57:46 10° 112° (ESE) 1,396 4.6 -21.1°
Sets 03:00:00 0° 100° (E) 2,249 6.0 -20.8°
